RH
88 97 93 94 100 97 82 48 26 17 13 9 8 8 12 12 12 13 16 24 29 62 36 16 18 49 66 36 49 41 91 100 100 100 100 100 100 100 100 100 93 86 79 81 92
100 98 99 100 100 98 70 45 21 13 10 8 7 8 16 21 15 16 51 76 100 100 100 44 19 32 42 62 73 69 100 100 100 95 97 100 100 100 100 100 100 100 100 100 98
100 84 100 100 100 85 64 37 15 10 10 7 7 9 17 81 42 75 99 93 100 89 86 100 38 32 40 72 88 97 100 100 100 100 100 100 88 100 100 100 100 100 100 100 100
100 90 100 100 98 78 60 19 12 13 10 8 8 10 13 31 99 100 100 75 98 96 100 89 75 51 87 100 74 100 100 100 100 100 100 100 100 77 100 100 100 100 100 100 100
99 85 100 100 98 73 43 11 11 12 13 15 11 12 13 14 30 100 100 100 100 100 100 98 95 100 72 98 100 100 100 100 99 100 100 100 100 100 100 100 100 98 98 98 98
95 89 100 100 92 70 24 10 10 10 14 25 22 15 14 15 16 46 99 100 100 91 100 100 100 100 100 69 73 100 100 100 97 98 100 97 96 97 96 92 100 100 95 80 76
95 90 100 100 83 54 18 11 13 10 12 17 25 28 22 16 19 18 24 83 100 100 100 100 100 99 100 90 100 100 100 100 100 100 95 79 74 92 87 77 87 97 100 100 95
92 100 100 96 76 44 16 9 13 16 12 14 25 38 39 30 19 17 19 18 28 87 100 100 93 100 100 100 100 100 86 99 100 100 100 96 92 72 72 70 72 68 61 54 63
81 92 100 95 67 39 16 13 18 16 12 13 18 41 58 52 34 28 22 18 19 19 22 90 100 100 94 100 100 100 99 100 100 100 100 100 100 100 100 98 85 80 78 60 56
81 95 100 92 59 31 17 31 18 15 21 17 15 21 42 82 58 45 37 29 26 24 21 19 20 42 86 100 98 100 100 100 95 75 78 99 100 100 100 100 100 100 100 94 70
72 100 100 81 51 35 31 36 18 20 21 22 16 16 20 59 82 64 53 44 49 38 34 31 28 18 18 20 23 38 64 85 77 94 100 100 95 81 84 91 100 100 100 100 100
72 100 91 72 39 31 30 33 26 22 25 22 15 20 20 26 66 91 81 64 63 64 56 46 41 37 33 28 21 20 21 23 22 24 43 56 69 81 90 89 79 69 56 46 57
100 100 82 63 43 29 25 48 54 36 44 21 21 22 31 28 31 50 69 80 81 81 74 91 65 49 48 45 36 30 26 24 24 24 25 27 28 28 29 32 35 42 59 74 68
100 100 86 62 40 29 31 60 49 40 47 48 47 31 42 40 42 27 28 64 78 88 80 95 68 66 62 57 62 62 46 43 40 34 29 26 24 26 26 25 24 23 21 21 25
100 99 78 57 43 28 45 59 59 43 55 44 45 33 27 38 43 71 44 34 57 91 94 99 96 71 64 68 64 70 59 52 51 49 41 40 38 30 27 24 22 23 23 21 18
100 92 73 60 46 32 50 58 70 73 44 43 31 36 35 29 72 94 72 40 51 87 70 99 100 89 80 76 74 81 76 54 49 50 54 57 54 46 47 44 34 29 27 25 22
100 100 84 65 47 29 50 66 96 60 31 52 39 33 31 31 51 82 80 93 54 88 73 91 100 96 91 87 96 93 91 79 68 64 55 57 68 70 66 57 44 36 33 31 30
100 92 89 71 49 30 36 55 93 100 62 61 56 50 46 30 47 56 80 82 64 58 65 79 100 99 96 100 99 77 86 94 75 72 70 68 69 63 62 56 51 42 40 38 31
100 100 90 67 72 50 39 52 92 100 68 61 62 70 61 35 36 51 52 85 100 93 70 66 100 99 100 100 100 100 100 100 92 88 81 80 70 52 70 72 54 47 48 37 28
100 97 82 77 76 82 45 42 58 82 48 54 100 96 82 60 39 44 41 55 95 100 89 96 100 98 100 100 100 100 100 95 90 94 86 88 82 63 57 58 57 59 46 39 29
100 100 94 83 76 100 100 96 51 53 37 44 66 81 100 87 52 51 46 54 68 91 100 82 84 96 100 100 100 98 96 99 96 96 84 70 63 60 72 86 80 58 49 41 30
100 100 100 95 100 100 100 98 75 57 68 42 34 51 64 62 61 81 61 65 74 86 96 78 89 98 94 100 100 99 100 99 74 71 76 72 53 49 60 72 57 59 48 40 35
100 100 100 98 93 87 76 74 99 97 84 72 59 53 42 64 72 80 61 75 78 94 83 88 98 100 97 100 100 94 96 75 66 65 77 62 50 58 60 48 56 57 42 41 37
100 100 100 87 97 100 96 86 81 80 82 84 74 51 57 78 83 78 65 83 83 81 88 100 100 99 93 100 100 96 80 57 48 52 62 54 54 47 47 53 53 53 40 39 37
100 100 91 91 93 100 99 90 92 97 97 100 70 58 74 91 97 79 84 92 76 83 96 100 99 100 100 99 100 97 68 47 49 42 46 48 51 58 56 54 54 54 38 41 38
100 100 89 91 73 100 94 100 87 74 84 98 83 70 85 97 64 71 97 73 78 86 100 96 100 100 98 100 100 90 60 47 46 39 47 45 45 56 60 60 58 54 44 48 40
100 100 75 77 71 99 100 95 80 70 75 56 48 60 48 50 71 99 80 65 81 100 100 100 100 100 100 98 98 70 49 50 52 49 50 44 45 56 57 59 57 64 51 50 47
Wind_Speed
66 64 64 65 61 63 65 70 73 75 77 65 62 29 18 9 5 1 7 5 2 2 9 24 37 59 60 63 62 59 61 58 49 55 45 48 45 46 54 56 55 54 50 47 39
61 62 63 64 58 61 61 65 66 66 61 59 45 33 22 11 8 7 11 5 11 9 6 13 37 52 52 59 55 53 55 56 51 54 48 44 46 49 51 54 54 54 57 55 51
64 64 58 60 58 57 58 59 56 55 55 39 41 23 21 13 10 9 10 13 1 5 5 6 20 40 50 51 52 44 49 59 58 49 53 51 56 50 54 56 60 59 58 57 55
64 60 56 57 54 54 53 49 44 43 44 33 32 23 22 18 4 12 2 6 9 3 6 8 13 37 42 46 46 45 36 47 57 53 47 50 55 62 61 61 60 62 63 60 59
55 57 53 51 49 52 51 41 34 33 36 39 29 20 18 18 12 11 10 6 4 3 6 7 15 16 33 47 49 46 39 41 48 47 55 53 51 55 56 56 59 60 58 64 63
51 51 53 50 45 48 46 35 33 32 30 39 45 36 21 16 16 8 14 14 12 8 8 11 13 17 21 34 35 49 54 47 47 45 49 55 53 56 59 60 57 58 61 64 66
52 48 50 47 44 46 45 36 34 33 25 34 41 44 48 20 13 11 7 18 19 16 18 18 17 19 25 28 30 34 39 45 51 52 57 63 61 58 59 67 66 65 64 63 64
48 45 50 46 41 43 38 30 32 37 23 26 32 37 37 46 35 20 10 3 3 22 23 25 26 26 26 29 32 35 36 38 42 46 49 55 55 66 68 68 71 74 76 77 77
49 48 48 44 38 42 37 32 32 32 35 30 29 34 36 35 42 36 37 23 10 6 8 30 30 32 33 36 39 42 43 45 46 46 49 53 53 57 60 62 68 70 73 78 81
53 45 48 39 39 39 35 32 32 29 34 37 32 27 31 34 34 36 35 32 31 30 17 10 16 27 29 36 40 44 47 49 52 54 57 61 60 60 60 63 63 65 68 72 78
50 48 44 34 37 37 34 33 29 26 29 34 33 28 27 31 34 33 34 34 33 30 29 28 27 12 20 28 33 41 49 56 56 55 59 63 66 69 71 72 74 76 76 76 76
43 48 36 33 36 38 35 29 27 30 27 29 28 31 31 29 31 33 34 34 35 33 30 30 29 27 23 17 16 22 32 38 44 49 58 60 62 67 72 75 78 82 85 87 90
48 45 33 35 37 37 37 27 33 31 26 24 26 32 32 30 28 29 31 32 34 35 35 34 31 30 30 28 23 22 23 27 31 38 45 51 57 61 68 73 77 81 87 91 95
48 45 35 34 38 36 35 27 28 26 26 27 28 32 32 31 33 30 29 30 35 36 36 35 36 34 32 33 35 31 30 33 37 38 38 40 44 48 54 59 67 77 83 88 94
48 38 31 35 38 37 33 26 27 27 26 26 28 29 29 31 33 38 36 31 33 37 39 39 40 40 39 38 38 39 36 37 39 42 42 44 47 44 49 52 55 59 65 74 88
44 35 31 35 35 37 32 27 27 28 28 23 27 26 28 27 32 37 39 34 34 37 37 40 41 45 46 46 44 44 44 43 43 44 46 47 50 50 52 54 56 59 60 63 68
40 36 34 35 34 36 32 27 26 25 26 25 26 28 28 28 32 37 39 45 37 39 39 39 43 47 49 49 50 51 53 52 52 48 54 53 53 55 55 57 60 62 60 61 65
39 35 34 34 35 34 32 29 27 27 30 31 29 28 30 32 31 35 40 43 44 40 41 39 45 48 52 53 55 55 57 59 60 55 58 53 52 54 59 60 64 64 61 63 65
38 35 35 34 39 38 31 32 27 22 31 32 33 33 32 33 34 36 39 45 50 50 49 43 48 53 56 57 58 60 62 63 66 62 62 56 56 58 61 62 65 63 64 65 62
39 34 35 35 38 39 31 34 34 33 36 33 32 37 39 41 39 41 39 43 48 50 49 50 51 57 58 58 62 63 66 66 67 64 65 57 58 61 59 63 64 65 65 61 56
40 37 38 35 37 41 39 39 37 36 38 37 35 39 42 46 47 47 44 46 48 52 53 53 55 58 60 60 62 66 68 70 70 69 62 63 62 65 64 64 64 65 60 53 48
44 39 38 37 36 40 42 40 41 40 41 41 38 41 45 47 46 48 49 49 51 54 57 57 57 58 62 64 66 69 70 73 75 69 66 71 70 67 63 60 60 55 47 44 42
45 40 37 39 38 36 39 39 39 38 40 41 40 44 45 47 48 52 51 52 54 58 59 61 62 63 67 68 69 75 74 80 74 73 70 76 65 56 53 53 52 49 39 38 37
48 44 44 40 41 35 36 39 35 35 37 40 42 45 45 47 49 53 54 53 56 61 63 64 65 66 70 69 74 73 82 77 82 73 67 63 62 52 50 46 46 45 37 33 32
48 44 44 43 43 41 40 40 32 35 37 39 42 43 46 49 53 56 54 57 60 61 63 63 67 69 70 73 77 80 85 83 70 61 60 57 53 50 48 46 40 43 35 33 30
49 46 45 43 45 46 43 41 39 37 37 40 42 46 48 51 55 55 58 60 62 63 64 65 66 69 74 76 80 83 86 73 58 58 57 55 51 42 40 39 36 37 36 35 33
51 48 48 45 46 46 48 45 45 43 44 48 48 49 52 53 56 56 61 66 65 68 67 67 67 71 72 78 80 86 85 64 55 58 60 56 43 35 34 32 29 31 37 35 34
Wind_Direction
312 311 315 315 308 314 322 325 329 331 337 341 342 358 355 354 12 31 345 311 247 285 222 220 217 211 213 214 216 215 212 215 220 221 218 231 234 242 244 239 240 239 240 240 238
307 311 313 309 307 317 323 328 331 332 338 342 342 357 11 2 4 8 22 77 134 174 213 224 213 214 215 214 216 213 217 215 218 227 220 223 237 238 239 243 244 245 245 245 243
305 308 310 305 310 318 322 328 334 338 339 346 351 6 27 21 17 45 33 55 182 215 210 215 221 209 216 218 217 214 219 219 221 224 227 223 223 237 238 239 239 239 240 243 244
304 307 307 304 309 319 320 330 342 351 355 6 357 8 25 29 110 102 6 44 57 42 251 224 223 215 214 208 216 217 218 227 224 227 223 228 232 228 233 240 242 241 241 241 241
298 303 299 301 309 319 316 335 342 354 12 29 21 23 23 25 42 162 147 180 194 277 238 187 201 212 228 219 219 218 225 230 228 233 235 230 227 229 234 241 245 242 242 241 240
300 309 293 299 311 316 314 336 349 348 12 43 43 39 32 28 28 59 196 178 175 182 222 226 234 214 218 230 233 229 228 233 234 235 241 241 240 237 234 236 237 243 247 247 245
296 305 293 298 309 310 310 319 350 342 18 41 44 42 39 44 32 24 32 212 196 200 201 205 226 225 229 228 229 233 235 242 244 246 245 247 245 248 247 244 241 245 247 247 247
298 293 295 293 309 306 309 326 344 347 2 14 27 28 31 41 49 46 27 346 259 222 225 228 223 231 234 237 241 242 243 243 242 244 245 244 251 252 253 249 246 247 248 250 249
294 297 285 291 303 301 301 316 334 347 8 8 17 25 21 20 32 39 44 51 29 321 271 238 234 230 235 238 235 237 240 241 242 247 250 252 248 249 252 253 252 251 253 254 253
292 290 282 291 297 296 299 314 320 337 345 357 4 19 17 11 12 20 33 45 46 44 29 315 268 263 254 247 247 248 248 247 247 249 250 248 246 246 248 252 251 248 249 253 258
289 279 276 292 292 293 296 314 326 333 346 356 359 9 13 13 8 11 18 26 26 27 30 28 31 355 270 261 258 258 262 266 265 260 256 253 253 251 252 252 252 252 248 248 248
277 266 273 286 285 286 292 302 322 330 342 353 359 1 10 8 3 3 6 4 11 12 10 14 15 14 6 337 315 285 275 270 267 265 267 267 263 260 257 256 256 256 255 256 256
263 264 276 282 282 283 285 290 303 319 331 344 344 349 0 6 2 358 354 355 357 0 0 356 351 357 356 353 339 322 306 293 283 275 269 267 268 268 266 264 263 261 258 255 254
259 257 264 270 275 284 281 289 303 310 319 331 337 343 341 350 360 359 352 342 341 343 346 349 346 339 339 341 342 328 316 308 309 303 287 278 272 271 269 267 268 265 262 259 260
247 251 262 268 275 281 280 287 297 305 311 322 329 337 345 345 340 348 352 347 340 338 337 340 337 338 338 332 332 333 323 317 309 307 303 299 293 290 283 278 276 272 267 265 264
240 246 257 262 273 276 273 280 289 303 309 318 324 325 336 345 337 338 346 345 346 335 332 330 331 333 334 332 327 325 327 322 317 310 308 299 297 292 292 291 292 289 282 274 268
234 244 252 262 272 274 272 273 282 298 308 314 319 326 331 338 334 330 329 331 333 328 326 324 325 326 330 332 327 322 318 320 318 310 312 305 296 292 290 291 294 294 289 282 275
233 242 250 261 270 274 274 270 278 289 298 303 312 318 324 327 327 329 326 328 330 327 327 320 319 319 325 325 323 321 318 318 319 311 314 304 296 295 291 289 294 294 292 289 284
234 242 251 260 265 272 272 267 279 286 287 296 306 310 316 321 326 325 323 320 323 323 323 325 319 318 319 321 320 319 317 317 317 313 314 306 300 301 296 294 296 296 294 292 286
232 240 250 258 266 267 268 268 268 276 284 292 303 305 308 313 319 323 322 324 322 320 318 317 314 313 319 319 318 318 317 316 316 312 312 302 300 298 297 297 295 295 295 295 288
236 242 249 259 269 266 268 273 273 273 279 284 289 297 301 308 313 318 318 324 322 318 317 317 315 315 318 317 317 318 316 315 316 314 309 305 303 302 297 297 296 296 298 295 289
240 244 251 262 268 265 267 270 271 277 284 287 293 293 297 302 309 309 315 320 321 319 315 314 319 319 318 315 316 318 316 315 317 314 306 307 308 305 301 297 299 296 296 292 291
241 247 255 263 267 275 272 274 276 277 282 289 294 296 299 301 305 310 314 316 317 315 316 315 316 317 321 317 317 318 317 319 316 312 307 306 306 302 300 301 301 299 300 292 288
240 248 257 263 271 275 283 279 275 279 283 288 292 297 299 302 303 309 312 317 315 314 316 317 315 315 321 318 317 318 319 318 319 313 310 309 308 310 300 300 301 299 301 293 291
246 253 261 264 272 276 284 282 282 284 285 286 291 299 301 302 303 309 312 312 315 316 318 315 314 317 319 316 319 316 320 323 320 317 315 312 306 306 307 305 305 303 304 301 295
248 253 255 263 273 275 281 281 278 284 289 292 295 298 298 301 307 307 309 311 315 314 314 315 315 317 319 318 319 316 324 323 323 326 323 316 305 311 310 308 310 304 305 304 300
248 250 260 266 273 276 282 282 279 281 283 290 292 295 297 303 308 308 311 315 312 313 311 314 315 317 317 319 317 320 324 321 324 329 330 327 321 317 319 314 310 306 305 308 302